sat.trackr.live / text

‹ back to catalog

STARLINK-36512

NORAD 67504 · 2026-012M

PAYLOAD ACTIVE UNKNOWN

§ Identity

Operator
Country
US
Launch date
2026-01-18
Launch site
AFETR
Launch vehicle
Mass (kg)
RCS (m²)

Purposes: comms

External: N2YO · Heavens-Above · Gunter

§ Orbital elements

Epoch: 2026-05-24T23:42:33.145632Z

Period
94.27 min
Inclination
42.9973°
Eccentricity
0.0002227
Mean motion
15.27597927 rev/d
Perigee alt
481.5 km
Apogee alt
484.5 km
Semi-major
6,861.1 km
B*
6.9191e-4
RAAN
243.2520°
Arg perigee
268.8339°
Mean anomaly
91.2257°
Rev number
1,943

§ Raw data

STARLINK-365121 67504U 26012M   26144.98788363  .00018837  00000+0  69191-3 0  99972 67504  42.9973 243.2520 0002227 268.8339  91.2257 15.27597927 19435

JSON: /api/v1/satellites/67504 · /tle

For live sub-satellite position, see the globe view (requires WebGL).

§ Visibility from observer

Set your observer location to see the next 7 days of passes ≥ 10°. The values pass through the URL so the page stays shareable.

No JS? Fill the form by hand. The geolocation button needs JavaScript.